Regional Weather Roundup
Issued by NWS Northern Indiana

Home | Current Version | Previous Version | Text Only | Print | Product List | Glossary Off
Versions: 1 2 3 4 5 6 7 8 9 10 11 12 13 14 15 16 17 18 19 20 21 22 23 24 25 26 27 28 29 30 31 32 33 34 35 36 37 38 39 40 41 42 43 44 45 46 47 48 49 50

000
ASUS43 KIWX 261100
RWRIWX

KIWX WEATHER ROUNDUP
NATIONAL WEATHER SERVICE NORTHERN INDIANA
700 AM EDT FRI MAY 26 2017

NOTE: "FAIR" INDICATES FEW OR NO CLOUDS BELOW 12,000 FEET WITH NO
SIGNIFICANT WEATHER AND/OR OBSTRUCTIONS TO VISIBILITY.

* THESE STATIONS ARE NOT UNDER NWS QUALITY CONTROL. THEY ALSO MAY NOT
  REPORT WEATHER SUCH AS PRECIPITATION OR FOG.

INZ001>027-261200-
NORTHERN INDIANA

CITY           SKY/WX    TMP DP  RH WIND       PRES   REMARKS
GARY*          MOCLDY    50  50 100 CALM      29.86R
VALPARAISO     CLOUDY    52  50  93 W5        29.86R FOG
MICHIGAN CITY* CLOUDY    45  45 100 CALM      29.86R FOG
SOUTH BEND     CLEAR     50  50 100 CALM      29.84S
ELKHART*       CLOUDY    52  50  93 NW7       29.84
GOSHEN         CLOUDY    52  49  89 W7        29.84R FOG
MONTICELLO*    CLEAR     49  48  95 CALM      29.86R FOG
ANGOLA*        CLOUDY    52  43  71 NW6       29.82R VSB 3/4
FORT WAYNE     CLOUDY    53  50  89 W9        29.84R FOG
PERU/GRISSOM   CLEAR     51  51 100 SW6       29.86R

$$
INZ028>050-261200-
CENTRAL INDIANA

CITY           SKY/WX    TMP DP  RH WIND       PRES   REMARKS
LAFAYETTE      PTCLDY    49  49 100 CALM      29.86R FOG
KOKOMO*        CLEAR     53  52  96 W3        29.87R FOG
MUNCIE*        CLOUDY    55  52  89 SW7       29.86R FOG
INDIANAPOLIS   CLOUDY    53  51  93 SW5       29.87R FOG

$$
MIZ043>046-050>051-056>058-064>065-071>073-077>080-261200-
SOUTHWEST LOWER MICHIGAN

CITY           SKY/WX    TMP DP  RH WIND       PRES   REMARKS
BATTLE CREEK   FOG       52  52 100 NW5       29.83R VSB 1/4
BENTON HARBOR  CLOUDY    52  50  93 CALM      29.83S
COLDWATER*     CLOUDY    53  53 100 W6        29.83R FOG
HILLSDALE*     CLOUDY    52  50  93 NW8       29.81R FOG
HOLLAND        FOG       50  49  96 CALM      29.83R VSB<1/4
GRAND RAPIDS   PTCLDY    52  52 100 W5        29.82R
KALAMAZOO      FOG       51  49  92 W5        29.84R VSB 1/4
STURGIS*       CLOUDY    51  51  99 NW3       29.83R FOG
THREE RIVERS*  FOG       51  51  98 W6        29.85R VSB 3/4

$$
OHZ001>008-015>018-024>025-261200-
NORTHWEST OHIO

CITY           SKY/WX    TMP DP  RH WIND       PRES   REMARKS
DEFIANCE       CLOUDY    53  51  93 NW9       29.82R
FINDLAY        CLOUDY    55  51  86 W10       29.80R FOG
TOLEDO EXPRESS CLOUDY    54  53  97 W9        29.78R
TOLEDO METCALF CLOUDY    58  56  93 W10       29.79R
LIMA           PTCLDY    53  52  96 W8        29.82R

$$
AND FOR LAKE MICHIGAN COASTAL AND OPEN LAKE BUOY OBSERVATIONS

STATION/POSITION TEMP    WIND        PRES    VSBY  WAVE
                 AIR SEA DIR/SP/G                  HT/PER
                 (F)     (DEG/KT/KT) (MB)    (MI)  (FT/S)
CALUMET HARBOR    54     220/  2/  2 1010.3R
MICHIGAN CITY     52     140/  1/  1   N/A
BURNS HARBOR      53     200/  4/  5 1011.5R
SOUTH LAKE BUOY   46 45  340/  8/  8 1010.2          1/ 5
4 MI NW BRIDGMAN  51 54  340/  4/  4 1010.8S         2/ 5
MICHIGAN CITY     52 51  230/  2/  4   N/A           2/ 5

$$
&&



USA.gov is the U.S. government's official web portal to all federal, state and local government web resources and services.